Location: Gleizolles
(44.4833°N, 6.7667°E)
Time: 11:59:37
(UTC+00:00)

Envisat - Pass Details

Date: 10 December 2021
Orbit: 764 x 766 km, 98.2° (Epoch: 20 January)

Event Time Altitude Azimuth Distance (km) Brightness Sun altitude
Rises 03:29:22 0° 27° (NNE) 3,242 6.6 -36.3°
Reaches altitude 10° 03:32:13 10° 43° (NE) 2,310 5.9 -35.8°
Maximum altitude 03:36:04 21° 92° (E) 1,657 5.3 -35.1°
Drops below altitude 10° 03:39:53 10° 141° (SE) 2,296 5.8 -34.4°
Sets 03:42:42 0° 157° (SSE) 3,216 6.5 -33.9°
